[[{"header":{"parameterUnit":"m.s-1","parameterCategory":1,"la1":30.2991,"la2":30.254,"lo1":-89.0895,"lo2":-89.0444,"dy":0.0017,"dx":0.0017,"nx":28,"ny":28,"refTime":"2025-12-06T03:00:00:Z","depth":0,"parameterNumber":2,"parameterNumberName":"U-component_of_WINDS"},"data":[0,0,0,0,0,0,0,0,0,0,0,0,0,0,0,0,0,0,0,0,0,0,0,0,0,0,0,0,0,0,0,0,0,0,0,0,0,0,0,0,0,0,0,0,0,0,0,0,0,0,0,0,0,0,0,0,0,0,-4.1704,-4.1705,0,-4.1724,-4.1724,-4.1725,-4.1586,-4.1582,-4.1578,-4.1575,-4.1599,-4.1603,-4.1607,0,0,0,0,0,0,0,0,0,0,0,0,0,-4.1552,-4.1555,-4.1704,-4.1705,-4.1705,-4.1724,-4.1724,-4.1725,-4.1587,-4.1582,-4.1577,-4.1573,-4.1598,-4.1603,-4.1608,0,0,0,0,0,0,0,0,0,0,0,0,0,-4.16,-4.1556,-4.1704,-4.1638,-4.1633,-4.1724,-4.1724,-4.1725,-4.1588,-4.1582,-4.1576,-4.1571,-4.1596,-4.1602,-4.1608,-4.1765,0,0,-4.1628,-4.1631,0,0,0,0,0,0,0,0,-4.1597,-4.1605,-4.1648,-4.1643,-4.1637,-4.1647,-4.1679,-4.1738,-4.1589,-4.1605,-4.1575,-4.1568,-4.162,-4.1624,-4.1641,-4.1766,-4.1767,-4.1629,-4.1633,-4.1635,-4.1637,0,0,0,0,0,0,0,-4.1594,-4.1604,-4.1712,-4.1649,-4.1642,-4.1609,-4.161,-4.169,-4.1645,-4.1603,-4.1593,-4.1597,-4.1616,-4.1635,-4.164,-4.1768,-4.1628,-4.1634,-4.1638,-4.1641,-4.2025,-4.2031,0,0,0,0,0,0,-4.1599,-4.1602,-4.1711,-4.1713,-4.1602,-4.1617,-4.1617,-4.165,-4.1644,-4.1637,-4.1602,-4.1591,-4.1627,-4.1633,-4.1641,-4.1824,-4.1635,-4.1641,-4.1645,-4.2019,-4.2026,-4.2033,0,0,0,0,0,0,-4.1596,-4.161,-4.1711,-4.1655,-4.1665,-4.1626,-4.1663,-4.1653,-4.1672,-4.1643,-4.1635,-4.163,-4.1622,-4.1631,-4.1735,-4.1823,-4.1644,-4.165,-4.2011,-4.2021,-4.203,-4.2192,0,0,0,0,0,0,-4.1592,-4.161,-4.1668,-4.1657,-4.1668,-4.1804,-4.1668,-4.1658,-4.1683,-4.1668,-4.1666,-4.1661,-4.1618,-4.1726,-4.1742,-4.1828,-4.1655,-4.2003,-4.2015,-4.2027,-4.2179,-4.2206,-4.2229,0,0,0,0,0,-4.1587,-4.1713,-4.1671,-4.1685,-4.174,-4.1809,-4.1816,-4.1764,-4.169,-4.1749,-4.1731,-4.1661,-4.1811,-4.1738,-4.1754,-4.1844,-4.1997,-4.2012,-4.2026,-4.2167,-4.2201,-4.2229,0,0,0,0,0,0,-4.1736,-4.171,-4.1664,-4.1789,-4.1803,-4.1786,-4.1858,-4.1801,-4.1835,-4.182,-4.1755,-4.1756,-4.1871,-4.1868,-4.1787,-4.1997,-4.1892,-4.191,-4.1994,-4.2025,-4.205,-4.2048,-4.166,0,0,0,0,0,-4.1783,-4.1841,-4.1816,-4.1929,-4.1938,-4.1898,-4.1926,-4.1885,-4.1896,-4.1901,-4.189,-4.1906,-4.1956,-4.1991,-4.2036,-4.2178,-4.2177,-4.2249,-4.2274,-4.2295,-4.2311,-4.2387,-4.2419,-4.208,-4.208,-4.208,0,0,-4.1882,-4.1875,-4.1915,-4.1959,-4.1964,-4.2026,-4.1903,-4.1974,-4.202,-4.1912,-4.2009,-4.2003,-4.2015,-4.214,-4.2194,-4.214,-4.2405,-4.2313,-4.233,-4.2335,-4.2405,-4.2438,-4.2466,-4.209,-4.2088,-4.2086,0,0,-4.2092,-4.2093,-4.2188,-4.2196,-4.2205,-4.2177,-4.2201,-4.2193,-4.2184,-4.2281,-4.2202,-4.2257,-4.2345,-4.2357,-4.2375,-4.2594,-4.2531,-4.2611,-4.2742,-4.2818,-4.2844,-4.2868,-4.2946,-4.2975,-4.2627,-4.2628,-4.2628,0,-4.2214,-4.2302,-4.2244,-4.232,-4.2343,-4.2248,-4.2344,-4.2356,-4.238,-4.2398,-4.2338,-4.2448,-4.245,-4.2576,-4.263,-4.2648,-4.2673,-4.261,-4.2845,-4.2868,-4.2889,-4.2963,-4.2992,-4.2637,-4.2636,-4.2635,-4.2634,0,-4.2451,-4.2515,-4.2591,-4.2616,-4.2647,-4.2733,-4.2689,-4.2728,-4.2685,-4.2665,-4.2765,-4.2765,-4.2808,-4.2835,-4.2794,-4.2957,-4.2924,-4.2856,-4.2749,-4.2932,-4.3,-4.3028,-4.2651,-4.2647,-4.2645,-4.2642,0,0,-4.2754,-4.2747,-4.2775,-4.2786,-4.2791,-4.2839,-4.2923,-4.2964,-4.2999,-4.3021,-4.3089,-4.3167,-4.3105,-4.3126,-4.3086,-4.3152,-4.3326,-4.3076,-4.3075,-4.3122,-4.3506,-4.3556,-4.359,-4.3285,-4.329,-4.3294,-4.3505,0,-4.2959,-4.3098,-4.3049,-4.3192,-4.3251,-4.3164,-4.3236,-4.3248,-4.3232,-4.3281,-4.3264,-4.332,-4.3233,-4.3245,-4.3307,-4.3292,-4.3402,-4.3276,-4.3349,-4.3352,-4.3347,-4.3625,-4.3678,-4.3876,-4.3531,-4.3535,-4.3539,0,-4.3216,-4.3247,-4.3396,-4.3392,-4.3414,-4.348,-4.3515,-4.3563,-4.3576,-4.3559,-4.3584,-4.353,-4.3614,-4.3508,-4.3623,-4.3538,-4.3566,-4.3563,-4.357,-4.3573,-4.3456,-4.3636,-4.3938,-4.3968,-4.358,-4.3577,-4.3574,0,-4.3422,-4.3501,-4.36,-4.3612,-4.361,-4.3658,-4.366,-4.3666,-4.3695,-4.3727,-4.3745,-4.3787,-4.381,-4.3845,-4.3805,-4.3732,-4.3926,-4.3817,-4.3916,-4.3917,-4.3959,-4.3957,-4.4269,-4.3979,-4.3979,-4.3978,-4.3978,0,-4.3655,-4.375,-4.3692,-4.3753,-4.3857,-4.3801,-4.3906,-4.3898,-4.3906,-4.3965,-4.3893,-4.3951,-4.3895,-4.3948,-4.3918,-4.4018,-4.4029,-4.4019,-4.401,-4.4025,-4.4026,-4.4041,-4.4026,-4.3986,-4.3984,-4.3983,-4.3982,0,-4.3901,-4.3866,-4.3969,-4.3959,-4.3959,-4.4036,-4.4028,-4.4085,-4.4064,-4.4141,-4.4155,-4.4124,-4.4183,-4.4147,-4.4208,-4.4188,-4.4318,-4.429,-4.4313,-4.4305,-4.4406,-4.4397,-4.4738,-4.478,-4.4464,-4.4467,-4.447,0,-4.4052,-4.4122,-4.412,-4.4154,-4.416,-4.4216,-4.4245,-4.4194,-4.4228,-4.4249,-4.4304,-4.4357,-4.4396,-4.4495,-4.4479,-4.4525,-4.4498,-4.4614,-4.4504,-4.4518,-4.4499,-4.4495,-4.4502,-4.4636,-4.464,-4.4643,-4.4645,0,-4.4323,-4.4303,-4.4346,-4.4385,-4.4422,-4.445,-4.4473,-4.4506,-4.4455,-4.4497,-4.4555,-4.4586,-4.4648,-4.4702,-4.4742,-4.4745,-4.4688,-4.4681,-4.4706,-4.4721,-4.4731,-4.4727,-4.4373,-4.4672,-4.467,-4.4668,-4.4666,-4.4665,-4.4525,-4.4584,-4.4592,-4.4644,-4.4656,-4.4679,-4.4732,-4.4719,-4.4767,-4.4812,-4.478,-4.485,-4.4864,-4.4911,-4.4922,-4.4978,-4.4931,-4.4967,-4.4976,-4.4986,-4.5,-4.4724,-4.4985,-4.4984,-4.4983,-4.4983,-4.4982,0,-4.4792,-4.4793,-4.4841,-4.4875,-4.4917,-4.4859,-4.4881,-4.492,-4.4983,-4.4999,-4.504,-4.5109,-4.5161,-4.515,-4.5198,-4.5245,-4.522,-4.5259,-4.5254,-4.5256,-4.5039,-4.5012,-4.5278,-4.5278,-4.5278,-4.5278,-4.5278,-4.5278,-4.4935,-4.5032,-4.5013,-4.5116,-4.5117,-4.5184,-4.5202,-4.5224,-4.5237,-4.5317,-4.5359,-4.5352,-4.5358,-4.5406,-4.5452,-4.5448,-4.5469,-4.5518,-4.5504,-4.5301,-4.5271,-4.5243,-4.5218,-4.5523,-4.5523,-4.5716,-4.5718,-4.572]},{"header":{"parameterUnit":"m.s-1","parameterCategory":1,"la1":30.2991,"la2":30.254,"lo1":-89.0895,"lo2":-89.0444,"dy":0.0017,"dx":0.0017,"nx":28,"ny":28,"refTime":"2025-12-06T03:00:00:Z","depth":0,"parameterNumber":3,"parameterNumberName":"V-component_of_WINDS"},"data":[0,0,0,0,0,0,0,0,0,0,0,0,0,0,0,0,0,0,0,0,0,0,0,0,0,0,0,0,0,0,0,0,0,0,0,0,0,0,0,0,0,0,0,0,0,0,0,0,0,0,0,0,0,0,0,0,0,0,-0.799,-0.799,0,-0.799,-0.799,-0.799,-0.7996,-0.7996,-0.7996,-0.7996,-0.7996,-0.7995,-0.7995,0,0,0,0,0,0,0,0,0,0,0,0,0,-0.7991,-0.7991,-0.799,-0.799,-0.799,-0.799,-0.799,-0.799,-0.7996,-0.7996,-0.7996,-0.7996,-0.7996,-0.7995,-0.7995,0,0,0,0,0,0,0,0,0,0,0,0,0,-0.7991,-0.7991,-0.799,-0.7993,-0.7993,-0.799,-0.799,-0.799,-0.7996,-0.7996,-0.7996,-0.7997,-0.7996,-0.7995,-0.7995,-0.7989,0,0,-0.7994,-0.7994,0,0,0,0,0,0,0,0,-0.7991,-0.7991,-0.7992,-0.7993,-0.7993,-0.7993,-0.799,-0.799,-0.7996,-0.7995,-0.7996,-0.7997,-0.7995,-0.7994,-0.7994,-0.7989,-0.7989,-0.7994,-0.7994,-0.7994,-0.7994,0,0,0,0,0,0,0,-0.7991,-0.7991,-0.799,-0.7992,-0.7993,-0.7993,-0.7993,-0.799,-0.7993,-0.7995,-0.7995,-0.7995,-0.7995,-0.7994,-0.7994,-0.7989,-0.7994,-0.7994,-0.7994,-0.7994,-0.7977,-0.7977,0,0,0,0,0,0,-0.799,-0.7991,-0.799,-0.799,-0.7992,-0.7993,-0.7993,-0.7993,-0.7993,-0.7994,-0.7995,-0.7996,-0.7994,-0.7994,-0.7994,-0.7986,-0.7994,-0.7994,-0.7994,-0.7978,-0.7977,-0.7977,0,0,0,0,0,0,-0.799,-0.799,-0.799,-0.799,-0.799,-0.7993,-0.7992,-0.7993,-0.7992,-0.7994,-0.7994,-0.7994,-0.7995,-0.7994,-0.799,-0.7986,-0.7994,-0.7994,-0.7978,-0.7977,-0.7977,-0.797,0,0,0,0,0,0,-0.7991,-0.799,-0.7989,-0.799,-0.799,-0.7987,-0.7992,-0.7993,-0.7992,-0.7993,-0.7993,-0.7993,-0.7995,-0.799,-0.799,-0.7986,-0.7993,-0.7978,-0.7978,-0.7977,-0.7971,-0.7969,-0.7968,0,0,0,0,0,-0.7991,-0.7987,-0.7989,-0.7989,-0.7989,-0.7987,-0.7987,-0.7989,-0.7992,-0.799,-0.799,-0.7993,-0.7986,-0.799,-0.7989,-0.7985,-0.7979,-0.7978,-0.7977,-0.7971,-0.797,-0.7968,0,0,0,0,0,0,-0.7986,-0.7988,-0.799,-0.7987,-0.7987,-0.7988,-0.7986,-0.7988,-0.7986,-0.7987,-0.7989,-0.7989,-0.7984,-0.7984,-0.7988,-0.7978,-0.7983,-0.7982,-0.7978,-0.7977,-0.7976,-0.7976,-0.7993,0,0,0,0,0,-0.7985,-0.7983,-0.7985,-0.7982,-0.7982,-0.7984,-0.7983,-0.7984,-0.7984,-0.7984,-0.7984,-0.7983,-0.798,-0.7979,-0.7977,-0.797,-0.797,-0.7967,-0.7966,-0.7965,-0.7964,-0.7959,-0.7957,-0.7975,-0.7975,-0.7975,0,0,-0.7982,-0.7983,-0.7982,-0.7981,-0.7981,-0.7979,-0.7984,-0.7981,-0.7979,-0.7983,-0.7979,-0.7979,-0.7978,-0.7972,-0.7969,-0.7972,-0.7959,-0.7964,-0.7963,-0.7963,-0.7958,-0.7956,-0.7954,-0.7974,-0.7974,-0.7974,0,0,-0.7975,-0.7977,-0.7974,-0.7973,-0.7973,-0.7973,-0.7973,-0.7973,-0.7973,-0.7969,-0.7971,-0.7968,-0.7964,-0.7962,-0.7961,-0.7951,-0.7953,-0.795,-0.7944,-0.7939,-0.7937,-0.7936,-0.7931,-0.7929,-0.7949,-0.7949,-0.7949,0,-0.7972,-0.7969,-0.7972,-0.7969,-0.7968,-0.7971,-0.7967,-0.7966,-0.7965,-0.7963,-0.7966,-0.7959,-0.7959,-0.7952,-0.7949,-0.7949,-0.7946,-0.795,-0.7937,-0.7936,-0.7935,-0.793,-0.7928,-0.7949,-0.7949,-0.7949,-0.7949,0,-0.7964,-0.7962,-0.796,-0.7958,-0.7956,-0.7953,-0.7953,-0.7951,-0.7952,-0.7952,-0.7946,-0.7946,-0.7942,-0.7941,-0.7942,-0.7933,-0.7934,-0.7937,-0.7942,-0.7933,-0.7928,-0.7927,-0.7948,-0.7948,-0.7949,-0.7949,0,0,-0.7957,-0.7955,-0.7954,-0.7952,-0.7951,-0.7948,-0.7944,-0.7941,-0.7938,-0.7936,-0.7932,-0.7927,-0.7929,-0.7927,-0.7928,-0.7924,-0.7913,-0.7927,-0.7927,-0.7923,-0.7901,-0.7898,-0.7896,-0.7915,-0.7914,-0.7914,-0.7901,0,-0.795,-0.7943,-0.7944,-0.7937,-0.7933,-0.7935,-0.7931,-0.7929,-0.7928,-0.7924,-0.7923,-0.7919,-0.7923,-0.7922,-0.7917,-0.7916,-0.7909,-0.7917,-0.7909,-0.7909,-0.7909,-0.7894,-0.7892,-0.788,-0.7899,-0.7899,-0.7899,0,-0.7941,-0.7939,-0.7931,-0.7928,-0.7927,-0.7923,-0.7919,-0.7916,-0.7912,-0.7912,-0.7909,-0.791,-0.7903,-0.7908,-0.7899,-0.7904,-0.7901,-0.7899,-0.7899,-0.7898,-0.7903,-0.7892,-0.7876,-0.7874,-0.7896,-0.7896,-0.7897,0,-0.7935,-0.7929,-0.7924,-0.7922,-0.7919,-0.7916,-0.7914,-0.7911,-0.7908,-0.7904,-0.7902,-0.7897,-0.7894,-0.789,-0.7889,-0.7893,-0.7878,-0.7884,-0.7877,-0.7877,-0.7874,-0.7874,-0.7856,-0.7873,-0.7873,-0.7873,-0.7873,0,-0.7927,-0.7922,-0.792,-0.7917,-0.791,-0.7911,-0.7904,-0.7902,-0.7899,-0.7894,-0.7895,-0.789,-0.7889,-0.7884,-0.7883,-0.7874,-0.7873,-0.7871,-0.7871,-0.7871,-0.7871,-0.7869,-0.7869,-0.7872,-0.7872,-0.7873,-0.7873,0,-0.7919,-0.7918,-0.7912,-0.7908,-0.7907,-0.7902,-0.7899,-0.7894,-0.7893,-0.7886,-0.7885,-0.7882,-0.7875,-0.7874,-0.7866,-0.7865,-0.7854,-0.7855,-0.7855,-0.7855,-0.7848,-0.7848,-0.7827,-0.7824,-0.7844,-0.7843,-0.7843,0,-0.7914,-0.791,-0.7905,-0.7902,-0.79,-0.7895,-0.7892,-0.7891,-0.7887,-0.7881,-0.7877,-0.787,-0.7865,-0.7854,-0.785,-0.7844,-0.7844,-0.7837,-0.7843,-0.7842,-0.7842,-0.7842,-0.7841,-0.7836,-0.7835,-0.7835,-0.7835,0,-0.7904,-0.7903,-0.7899,-0.7893,-0.7889,-0.7885,-0.788,-0.7877,-0.7875,-0.7871,-0.7863,-0.7859,-0.785,-0.7843,-0.7835,-0.7832,-0.7833,-0.7833,-0.7831,-0.7831,-0.783,-0.7829,-0.7851,-0.7834,-0.7834,-0.7834,-0.7834,-0.7834,-0.7897,-0.7893,-0.7888,-0.7882,-0.7879,-0.7874,-0.7869,-0.7866,-0.786,-0.7853,-0.7852,-0.7844,-0.7838,-0.7828,-0.7824,-0.7817,-0.7819,-0.7816,-0.7815,-0.7814,-0.7813,-0.7832,-0.7816,-0.7816,-0.7816,-0.7816,-0.7816,0,-0.7886,-0.7883,-0.7878,-0.7871,-0.7865,-0.7866,-0.7861,-0.7856,-0.7849,-0.7843,-0.7837,-0.7828,-0.782,-0.7815,-0.7807,-0.7802,-0.7801,-0.7799,-0.7799,-0.7798,-0.7813,-0.7815,-0.7799,-0.7799,-0.7799,-0.7799,-0.7799,-0.7799,-0.788,-0.7872,-0.787,-0.786,-0.7856,-0.7848,-0.7844,-0.7839,-0.7835,-0.7824,-0.7817,-0.7814,-0.7808,-0.7799,-0.7791,-0.779,-0.7786,-0.7784,-0.7782,-0.7796,-0.7798,-0.7799,-0.7801,-0.7783,-0.7783,-0.7768,-0.7768,-0.7768]}]]